カタログに戻る

FORMOSAT7-5/COSMIC2-5

運用中気象VLEO
NORAD 44358·PAYLOAD·🇹🇼 Taiwan

打ち上げ Jun 25, 2019 から Cape Canaveral Space Force Station

Loading…

次のパス (今後24時間)

TLE

最新Source: Space-Track

元期: Sep 14, 2026, 16:11 UTC

1 44358U 19036V   26257.67432037  .00002125  00000-0  15528-3 0  9991
2 44358  23.9994  24.9411 0000459 113.5752 246.4797 14.96805683395775

AllMySatでFORMOSAT7-5/COSMIC2-5をリアルタイム追跡

Download on the App Store